TimeMST,TemperatureF,Dew PointF,Humidity,Sea Level PressureIn,VisibilityMPH,Wind Direction,Wind SpeedMPH,Gust SpeedMPH,PrecipitationIn,Events,Conditions,WindDirDegrees,DateUTC
12:15 AM,28.4,15.8,59,30.15,10.0,West,3.5,-,N/A,,Clear,280,2013-03-04 07:15:00
12:35 AM,28.4,17.6,64,30.15,10.0,WNW,6.9,-,N/A,,Clear,290,2013-03-04 07:35:00
12:55 AM,28.4,15.8,59,30.16,10.0,WNW,6.9,-,N/A,,Clear,290,2013-03-04 07:55:00
1:15 AM,30.2,15.8,55,30.16,10.0,NW,4.6,-,N/A,,Clear,310,2013-03-04 08:15:00
1:35 AM,30.2,15.8,55,30.17,10.0,NW,5.8,-,N/A,,Clear,310,2013-03-04 08:35:00
1:55 AM,28.4,15.8,59,30.17,10.0,NW,5.8,-,N/A,,Clear,310,2013-03-04 08:55:00
2:15 AM,30.2,15.8,55,30.18,10.0,NW,4.6,-,N/A,,Clear,320,2013-03-04 09:15:00
2:35 AM,30.2,15.8,55,30.18,10.0,NW,4.6,-,N/A,,Clear,320,2013-03-04 09:35:00
2:55 AM,28.4,17.6,64,30.18,10.0,NW,3.5,-,N/A,,Clear,310,2013-03-04 09:55:00
3:35 AM,28.4,17.6,64,30.19,10.0,WNW,6.9,-,N/A,,Clear,290,2013-03-04 10:35:00
3:55 AM,28.4,17.6,64,30.19,10.0,WNW,5.8,-,N/A,,Clear,300,2013-03-04 10:55:00
4:15 AM,26.6,17.6,69,30.20,10.0,Calm,Calm,-,N/A,,Clear,0,2013-03-04 11:15:00
4:35 AM,24.8,17.6,74,30.20,10.0,Calm,Calm,-,N/A,,Clear,0,2013-03-04 11:35:00
4:55 AM,24.8,17.6,74,30.21,10.0,Calm,Calm,-,N/A,,Clear,0,2013-03-04 11:55:00
5:15 AM,26.6,17.6,69,30.21,10.0,Calm,Calm,-,N/A,,Clear,0,2013-03-04 12:15:00
5:35 AM,23.0,19.4,86,30.22,10.0,Calm,Calm,-,N/A,,Clear,0,2013-03-04 12:35:00
5:55 AM,23.0,17.6,80,30.23,10.0,Calm,Calm,-,N/A,,Clear,0,2013-03-04 12:55:00
6:15 AM,23.0,21.2,93,30.22,10.0,West,5.8,-,N/A,,Clear,280,2013-03-04 13:15:00
6:35 AM,24.8,19.4,80,30.23,10.0,Calm,Calm,-,N/A,,Clear,0,2013-03-04 13:35:00
6:55 AM,23.0,19.4,86,30.23,10.0,Calm,Calm,-,N/A,,Clear,0,2013-03-04 13:55:00
7:15 AM,24.8,21.2,86,30.23,10.0,Calm,Calm,-,N/A,,Clear,0,2013-03-04 14:15:00
7:35 AM,26.6,19.4,74,30.24,10.0,WNW,4.6,-,N/A,,Clear,300,2013-03-04 14:35:00
7:55 AM,28.4,21.2,74,30.25,10.0,West,3.5,-,N/A,,Clear,270,2013-03-04 14:55:00
8:15 AM,30.2,19.4,64,30.25,10.0,WNW,5.8,-,N/A,,Clear,300,2013-03-04 15:15:00
8:35 AM,30.2,21.2,69,30.26,10.0,WNW,6.9,-,N/A,,Clear,290,2013-03-04 15:35:00
8:55 AM,32.0,23.0,69,30.26,10.0,WNW,6.9,-,N/A,,Clear,300,2013-03-04 15:55:00
9:15 AM,32.0,23.0,69,30.27,10.0,WNW,6.9,-,N/A,,Clear,300,2013-03-04 16:15:00
9:35 AM,32.0,23.0,69,30.27,10.0,NW,6.9,-,N/A,,Clear,310,2013-03-04 16:35:00
9:55 AM,32.0,23.0,69,30.27,10.0,NW,5.8,-,N/A,,Clear,320,2013-03-04 16:55:00
10:15 AM,33.8,23.0,65,30.27,10.0,NNW,5.8,-,N/A,,Clear,330,2013-03-04 17:15:00
10:35 AM,35.6,19.4,52,30.28,10.0,NNW,5.8,-,N/A,,Clear,330,2013-03-04 17:35:00
10:55 AM,37.4,17.6,45,30.27,10.0,NNE,5.8,-,N/A,,Clear,20,2013-03-04 17:55:00
11:15 AM,37.4,15.8,41,30.27,10.0,NE,3.5,-,N/A,,Clear,50,2013-03-04 18:15:00
11:35 AM,37.4,14.0,38,30.27,10.0,NNW,3.5,-,N/A,,Clear,340,2013-03-04 18:35:00
11:55 AM,39.2,14.0,36,30.27,10.0,NNE,3.5,-,N/A,,Clear,20,2013-03-04 18:55:00
12:15 PM,39.2,12.2,33,30.26,10.0,Calm,Calm,-,N/A,,Clear,0,2013-03-04 19:15:00
12:35 PM,41.0,10.4,29,30.25,10.0,WNW,3.5,-,N/A,,Clear,300,2013-03-04 19:35:00
12:55 PM,41.0,10.4,29,30.25,10.0,Calm,Calm,-,N/A,,Clear,0,2013-03-04 19:55:00
1:15 PM,41.0,8.6,26,30.24,10.0,Calm,Calm,-,N/A,,Clear,0,2013-03-04 20:15:00
1:35 PM,41.0,10.4,29,30.23,10.0,NE,3.5,-,N/A,,Clear,50,2013-03-04 20:35:00
1:55 PM,42.8,8.6,25,30.22,10.0,SSW,8.1,-,N/A,,Clear,200,2013-03-04 20:55:00
2:15 PM,44.6,8.6,23,30.22,10.0,ESE,4.6,-,N/A,,Clear,120,2013-03-04 21:15:00
2:35 PM,44.6,8.6,23,30.21,10.0,SSE,4.6,-,N/A,,Clear,160,2013-03-04 21:35:00
2:55 PM,44.6,8.6,23,30.21,10.0,Calm,Calm,-,N/A,,Clear,0,2013-03-04 21:55:00
3:15 PM,44.6,8.6,23,30.20,10.0,SSE,3.5,-,N/A,,Clear,150,2013-03-04 22:15:00
3:35 PM,46.4,10.4,23,30.19,10.0,SE,5.8,-,N/A,,Clear,140,2013-03-04 22:35:00
3:55 PM,46.4,8.6,22,30.19,10.0,SE,5.8,-,N/A,,Clear,140,2013-03-04 22:55:00
4:15 PM,46.4,8.6,22,30.18,10.0,SSE,10.4,-,N/A,,Clear,150,2013-03-04 23:15:00
4:35 PM,46.4,8.6,22,30.17,10.0,SSE,8.1,16.1,N/A,,Clear,160,2013-03-04 23:35:00
4:55 PM,46.4,6.8,20,30.17,10.0,SE,8.1,17.3,N/A,,Clear,140,2013-03-04 23:55:00
5:15 PM,46.4,6.8,20,30.17,10.0,SE,8.1,16.1,N/A,,Clear,140,2013-03-05 00:15:00
5:35 PM,44.6,5.0,20,30.17,10.0,SE,10.4,19.6,N/A,,Clear,130,2013-03-05 00:35:00
5:55 PM,44.6,8.6,23,30.17,10.0,SE,10.4,-,N/A,,Clear,140,2013-03-05 00:55:00
6:15 PM,41.0,6.8,24,30.16,10.0,SE,10.4,-,N/A,,Clear,130,2013-03-05 01:15:00
6:35 PM,41.0,6.8,24,30.17,10.0,ESE,10.4,-,N/A,,Clear,120,2013-03-05 01:35:00
6:55 PM,39.2,6.8,26,30.17,10.0,ESE,9.2,-,N/A,,Clear,120,2013-03-05 01:55:00
7:15 PM,37.4,8.6,30,30.17,10.0,ESE,8.1,-,N/A,,Clear,120,2013-03-05 02:15:00
7:55 PM,35.6,8.6,33,30.17,10.0,SE,11.5,-,N/A,,Clear,130,2013-03-05 02:55:00
8:15 PM,35.6,10.4,35,30.16,10.0,SE,10.4,-,N/A,,Clear,130,2013-03-05 03:15:00
8:35 PM,32.0,10.4,41,30.16,10.0,SE,9.2,-,N/A,,Clear,130,2013-03-05 03:35:00
8:55 PM,32.0,14.0,48,30.16,10.0,SE,6.9,-,N/A,,Clear,140,2013-03-05 03:55:00
9:15 PM,32.0,14.0,48,30.16,10.0,SE,8.1,-,N/A,,Clear,140,2013-03-05 04:15:00
9:35 PM,30.2,15.8,55,30.17,10.0,South,4.6,-,N/A,,Clear,170,2013-03-05 04:35:00
9:55 PM,30.2,15.8,55,30.17,10.0,SSE,6.9,-,N/A,,Clear,160,2013-03-05 04:55:00
10:15 PM,32.0,15.8,51,30.17,10.0,South,9.2,-,N/A,,Clear,170,2013-03-05 05:15:00
10:35 PM,32.0,14.0,48,30.17,10.0,SSE,9.2,-,N/A,,Clear,160,2013-03-05 05:35:00
10:55 PM,32.0,14.0,48,30.16,10.0,South,6.9,-,N/A,,Clear,170,2013-03-05 05:55:00
11:35 PM,32.0,14.0,48,30.15,10.0,SSE,8.1,-,N/A,,Clear,160,2013-03-05 06:35:00
11:55 PM,32.0,14.0,48,30.15,10.0,SSE,9.2,-,N/A,,Clear,160,2013-03-05 06:55:00